Date String (YYYY-MM-DD hh:mm:ss) UTC,Instrument flags,Ambient pressure (hPa),Sample flow (lpm),Bypass flow (lpm),Sample temperature (°C),Ambient temperature (°C),ASC tube jacket temperature (°C),LED temperature (°C),Box temperature (°C),Sample RH (%),Span deviation,Mass concentration (μg/m³),Mass concentration (μg/m³),Mass concentration (μg/m³)
DateTimeUTC,F1_M11,P_M11,Q1_M11,Q2_M11,T1_M11,T2_M11,T3_M11,T4_M11,T5_M11,U1_M11,ZSPAN_M11,X2_M11,X0_M11,X1_M11
2022-06-23 04:00:00,,0828.3,5.01,0.00,29.3,28.1,00.0,38.1,31.2,17.1,0000.0,0005.62,0018.61,0003.91
2022-06-23 04:01:00,,0828.3,4.99,0.00,29.3,28.2,00.0,38.1,31.3,17.2,0000.0,0005.60,0018.89,0003.90
2022-06-23 04:02:00,,0828.3,5.00,0.00,29.4,28.3,00.0,38.1,31.3,17.2,0000.0,0005.65,0018.94,0003.90
2022-06-23 04:03:00,,0828.3,5.01,0.00,29.4,28.4,00.0,38.1,31.3,17.3,0000.0,0005.67,0019.03,0003.88
2022-06-23 04:04:00,,0828.3,5.00,0.00,29.4,28.4,00.0,38.2,31.4,17.4,0000.0,0005.66,0018.09,0003.87
2022-06-23 04:05:00,,0828.3,5.00,0.00,29.4,28.5,00.0,38.2,31.4,17.3,0000.0,0005.63,0018.43,0003.86
2022-06-23 04:06:00,,0828.3,4.99,0.00,29.5,28.6,00.0,38.2,31.4,17.3,0000.0,0005.60,0019.05,0003.86
2022-06-23 04:07:00,,0828.3,5.00,0.00,29.5,28.6,00.0,38.2,31.5,17.3,0000.0,0005.55,0018.32,0003.84
2022-06-23 04:08:00,,0828.3,5.01,0.00,29.5,28.2,00.0,38.2,31.4,17.4,0000.0,0005.55,0017.98,0003.82
2022-06-23 04:09:00,,0828.3,5.00,0.00,29.4,27.5,00.0,38.1,31.2,17.4,0000.0,0005.54,0018.12,0003.79
2022-06-23 04:10:00,,0828.3,5.01,0.00,29.4,27.3,00.0,38.1,31.1,17.4,0000.0,0005.52,0018.81,0003.78
2022-06-23 04:11:00,,0828.3,5.00,0.00,29.3,27.3,00.0,38.1,31.0,17.5,0000.0,0005.47,0018.74,0003.76
2022-06-23 04:12:00,,0828.3,4.99,0.00,29.3,27.4,00.0,38.1,31.1,17.5,0000.0,0005.50,0018.70,0003.74
2022-06-23 04:13:00,,0828.4,5.00,0.00,29.3,27.5,00.0,38.1,31.1,17.5,0000.0,0005.45,0018.81,0003.73
2022-06-23 04:14:00,,0828.4,5.00,0.00,29.3,27.6,00.0,38.1,31.1,17.5,0000.0,0005.42,0019.34,0003.71
2022-06-23 04:15:00,,0828.4,5.01,0.00,29.3,27.8,00.0,38.1,31.1,17.6,0000.0,0005.36,0019.85,0003.68
2022-06-23 04:16:00,,0828.4,5.00,0.00,29.3,27.9,00.0,38.1,31.2,17.5,0000.0,0005.36,0020.18,0003.67
2022-06-23 04:17:00,,0828.4,5.00,0.00,29.3,28.0,00.0,38.1,31.2,17.5,0000.0,0005.35,0019.64,0003.66
2022-06-23 04:18:00,,0828.5,5.00,0.00,29.3,28.1,00.0,38.1,31.3,17.6,0000.0,0005.40,0019.52,0003.65
2022-06-23 04:19:00,,0828.4,4.99,0.00,29.3,28.2,00.0,38.2,31.3,17.5,0000.0,0005.39,0019.51,0003.64
2022-06-23 04:20:00,,0828.4,5.00,0.00,29.4,28.3,00.0,38.2,31.3,17.3,0000.0,0005.40,0019.43,0003.64
2022-06-23 04:21:00,,0828.4,5.00,0.00,29.4,28.4,00.0,38.2,31.4,17.3,0000.0,0005.40,0018.70,0003.63
2022-06-23 04:22:00,,0828.4,5.00,0.00,29.4,28.5,00.0,38.2,31.4,17.4,0000.0,0005.39,0017.98,0003.62
2022-06-23 04:23:00,,0828.4,5.00,0.00,29.5,28.5,00.0,38.2,31.4,17.3,0000.0,0005.37,0017.49,0003.62
2022-06-23 04:24:00,,0828.3,4.99,0.00,29.5,28.6,00.0,38.2,31.4,17.4,0000.0,0005.40,0017.00,0003.62
2022-06-23 04:25:00,,0828.3,5.00,0.00,29.5,28.6,00.0,38.3,31.5,17.3,0000.0,0005.41,0016.03,0003.64
2022-06-23 04:26:00,,0828.3,5.00,0.00,29.5,28.6,00.0,38.3,31.5,17.0,0000.0,0005.45,0015.61,0003.64
2022-06-23 04:27:00,,0828.3,5.00,0.00,29.5,27.9,00.0,38.2,31.3,17.0,0000.0,0005.42,0015.21,0003.63
2022-06-23 04:28:00,,0828.3,5.00,0.00,29.4,27.3,00.0,38.2,31.1,17.0,0000.0,0005.37,0014.61,0003.62
2022-06-23 04:29:00,,0828.3,5.01,0.00,29.4,27.2,00.0,38.2,31.0,17.1,0000.0,0005.29,0014.74,0003.62
2022-06-23 04:30:00,,0828.3,5.00,0.00,29.3,27.3,00.0,38.1,31.0,17.2,0000.0,0005.28,0015.85,0003.62
2022-06-23 04:31:00,,0828.3,5.00,0.00,29.3,27.4,00.0,38.1,31.0,17.2,0000.0,0005.24,0015.72,0003.62
2022-06-23 04:32:00,,0828.3,4.99,0.00,29.3,27.5,00.0,38.1,31.1,17.3,0000.0,0005.23,0015.54,0003.62
2022-06-23 04:33:00,,0828.3,5.00,0.00,29.3,27.7,00.0,38.1,31.1,17.3,0000.0,0005.22,0015.57,0003.64
2022-06-23 04:34:00,,0828.3,5.00,0.00,29.3,27.8,00.0,38.1,31.2,17.3,0000.0,0005.21,0016.29,0003.64
2022-06-23 04:35:00,,0828.3,5.00,0.00,29.3,27.9,00.0,38.1,31.2,17.3,0000.0,0005.14,0017.05,0003.64
2022-06-23 04:36:00,,0828.3,5.00,0.00,29.3,28.0,00.0,38.1,31.2,17.2,0000.0,0005.06,0016.83,0003.63
2022-06-23 04:37:00,,0828.2,4.99,0.00,29.3,28.1,00.0,38.2,31.3,17.1,0000.0,0005.03,0016.33,0003.62
2022-06-23 04:38:00,,0828.3,5.00,0.00,29.4,28.2,00.0,38.2,31.3,17.1,0000.0,0005.05,0015.56,0003.61
2022-06-23 04:39:00,,0828.3,5.00,0.00,29.4,28.3,00.0,38.2,31.3,16.9,0000.0,0005.01,0015.38,0003.60
2022-06-23 04:40:00,,0828.3,5.00,0.00,29.4,28.4,00.0,38.2,31.4,16.8,0000.0,0005.04,0015.73,0003.59
2022-06-23 04:41:00,,0828.3,4.99,0.00,29.4,28.4,00.0,38.2,31.4,16.7,0000.0,0005.04,0015.40,0003.56
2022-06-23 04:42:00,,0828.3,4.99,0.00,29.5,28.5,00.0,38.2,31.4,16.6,0000.0,0005.06,0015.76,0003.56
2022-06-23 04:43:00,,0828.3,5.01,0.00,29.5,28.5,00.0,38.3,31.5,16.7,0000.0,0005.08,0017.06,0003.54
2022-06-23 04:44:00,,0828.3,4.99,0.00,29.5,28.6,00.0,38.3,31.5,16.6,0000.0,0005.11,0017.07,0003.52
2022-06-23 04:45:00,,0828.3,4.99,0.00,29.5,28.6,00.0,38.3,31.5,16.6,0000.0,0005.10,0016.58,0003.51
2022-06-23 04:46:00,,0828.3,5.00,0.00,29.6,28.7,00.0,38.3,31.5,16.6,0000.0,0005.10,0015.70,0003.50
2022-06-23 04:47:00,,0828.2,5.00,0.00,29.6,28.5,00.0,38.3,31.5,16.6,0000.0,0005.13,0016.18,0003.49
2022-06-23 04:48:00,,0828.3,5.01,0.00,29.5,27.7,00.0,38.3,31.3,16.6,0000.0,0005.14,0018.10,0003.49
2022-06-23 04:49:00,,0828.2,5.00,0.00,29.5,27.3,00.0,38.2,31.2,16.6,0000.0,0005.13,0019.35,0003.49
2022-06-23 04:50:00,,0828.3,4.99,0.00,29.4,27.3,00.0,38.2,31.1,16.7,0000.0,0005.15,0020.94,0003.49
2022-06-23 04:51:00,,0828.3,5.00,0.00,29.4,27.3,00.0,38.2,31.1,16.8,0000.0,0005.14,0021.41,0003.48
2022-06-23 04:52:00,,0828.3,4.99,0.00,29.3,27.4,00.0,38.2,31.1,16.8,0000.0,0005.13,0020.76,0003.48
2022-06-23 04:53:00,,0828.3,5.00,0.00,29.3,27.6,00.0,38.2,31.1,16.8,0000.0,0005.15,0021.53,0003.49
2022-06-23 04:54:00,,0828.3,5.00,0.00,29.3,27.7,00.0,38.2,31.2,16.8,0000.0,0005.10,0020.40,0003.49
2022-06-23 04:55:00,,0828.3,5.00,0.00,29.3,27.8,00.0,38.2,31.2,16.9,0000.0,0005.03,0019.91,0003.49
2022-06-23 04:56:00,,0828.3,5.01,0.00,29.3,28.0,00.0,38.2,31.2,16.9,0000.0,0005.00,0019.53,0003.47
2022-06-23 04:57:00,,0828.3,4.99,0.00,29.4,28.1,00.0,38.2,31.3,16.8,0000.0,0004.92,0020.79,0003.46
2022-06-23 04:58:00,,0828.3,5.00,0.00,29.4,28.2,00.0,38.2,31.3,16.7,0000.0,0004.86,0020.46,0003.45
2022-06-23 04:59:00,,0828.3,5.00,0.00,29.4,28.2,00.0,38.2,31.3,16.7,0000.0,0004.83,0018.69,0003.45
